Hourly Weather Hefei

Today, 5 July, Sunday

Time Temperature Precipitation Wind Pressure Humidity
00:00 +24°C° 0 mm 2 mps 751 mmHg 90%
01:00 +24°C° 0 mm 2 mps 750 mmHg 92%
02:00 +24°C° 0 mm 2 mps 750 mmHg 94%
03:00 +24°C° 0 mm 2 mps 750 mmHg 95%
04:00 +24°C° 0 mm 2 mps 749 mmHg 95%
05:00 +24°C° 0 mm 2 mps 749 mmHg 95%
06:00 +24°C° 0 mm 2 mps 749 mmHg 93%
07:00 +25°C° 0 mm 2 mps 749 mmHg 91%
08:00 +26°C° 0 mm 2 mps 749 mmHg 89%
09:00 +27°C° 0 mm 2 mps 749 mmHg 84%
10:00 +29°C° 0 mm 2 mps 749 mmHg 80%
11:00 +30°C° 0 mm 2 mps 748 mmHg 75%
12:00 +31°C° 0.8 mm 2 mps 748 mmHg 74%
13:00 +31°C° 0.8 mm 2 mps 748 mmHg 73%
14:00 +33°C° 0.8 mm 3 mps 747 mmHg 72%
15:00 +31°C° 0.8 mm 3 mps 747 mmHg 75%
16:00 +31°C° 0.8 mm 3 mps 746 mmHg 78%
17:00 +31°C° 0.8 mm 3 mps 746 mmHg 80%
18:00 +29°C° 0.5 mm 3 mps 746 mmHg 85%
19:00 +28°C° 0.5 mm 2 mps 746 mmHg 89%
20:00 +27°C° 0.5 mm 2 mps 746 mmHg 93%
21:00 +27°C° 0.3 mm 2 mps 747 mmHg 93%
22:00 +27°C° 0.3 mm 2 mps 747 mmHg 93%
23:00 +27°C° 0.3 mm 2 mps 747 mmHg 93%

Tomorrow, 6 July, Monday

Time Temperature Precipitation Wind Pressure Humidity
00:00 +27°C° 0.1 mm 2 mps 747 mmHg 92%
01:00 +27°C° 0.1 mm 1 mps 747 mmHg 91%
02:00 +27°C° 0.1 mm 1 mps 746 mmHg 90%
03:00 +27°C° 0.1 mm 1 mps 746 mmHg 91%
04:00 +27°C° 0.1 mm 1 mps 746 mmHg 91%
05:00 +26°C° 0.1 mm 2 mps 747 mmHg 92%
06:00 +27°C° 0.1 mm 2 mps 747 mmHg 90%
07:00 +28°C° 0.1 mm 2 mps 747 mmHg 88%
08:00 +29°C° 0.1 mm 2 mps 747 mmHg 87%
09:00 +30°C° 0.4 mm 1 mps 748 mmHg 81%
10:00 +31°C° 0.4 mm 1 mps 748 mmHg 76%
11:00 +32°C° 0.4 mm 1 mps 748 mmHg 70%
12:00 +33°C° 0.6 mm 1 mps 748 mmHg 69%
13:00 +34°C° 0.6 mm 2 mps 747 mmHg 68%
14:00 +34°C° 0.6 mm 2 mps 747 mmHg 67%
15:00 +32°C° 0.4 mm 2 mps 747 mmHg 72%
16:00 +31°C° 0.4 mm 3 mps 747 mmHg 78%
17:00 +30°C° 0.4 mm 4 mps 747 mmHg 83%
18:00 +29°C° 0 mm 3 mps 747 mmHg 86%
19:00 +28°C° 0 mm 3 mps 748 mmHg 90%
20:00 +27°C° 0 mm 3 mps 749 mmHg 93%
21:00 +27°C° 0 mm 3 mps 749 mmHg 93%
22:00 +27°C° 0 mm 2 mps 749 mmHg 93%
23:00 +27°C° 0 mm 2 mps 749 mmHg 93%

Day after tomorrow, 7 July, Tuesday

Time Temperature Precipitation Wind Pressure Humidity
00:00 +26°C° 0 mm 2 mps 749 mmHg 94%
01:00 +26°C° 0 mm 2 mps 749 mmHg 94%
02:00 +26°C° 0 mm 2 mps 748 mmHg 95%
03:00 +26°C° 0 mm 1 mps 748 mmHg 95%
04:00 +26°C° 0 mm 1 mps 748 mmHg 95%
05:00 +26°C° 0 mm 1 mps 748 mmHg 96%
06:00 +27°C° 0 mm 1 mps 749 mmHg 93%
07:00 +28°C° 0 mm 1 mps 749 mmHg 90%
08:00 +28°C° 0 mm 2 mps 749 mmHg 87%
09:00 +30°C° 0 mm 2 mps 749 mmHg 83%
10:00 +31°C° 0 mm 2 mps 749 mmHg 79%
11:00 +32°C° 0 mm 2 mps 750 mmHg 75%
12:00 +32°C° 0.5 mm 2 mps 749 mmHg 73%
13:00 +32°C° 0.5 mm 2 mps 749 mmHg 72%
14:00 +32°C° 0.5 mm 2 mps 749 mmHg 71%
15:00 +32°C° 0.1 mm 2 mps 749 mmHg 72%
16:00 +33°C° 0.1 mm 3 mps 749 mmHg 73%
17:00 +33°C° 0.1 mm 3 mps 749 mmHg 74%
18:00 +31°C° 0.3 mm 3 mps 749 mmHg 78%
19:00 +29°C° 0.3 mm 3 mps 749 mmHg 83%
20:00 +28°C° 0.3 mm 3 mps 750 mmHg 88%
21:00 +27°C° 0.1 mm 3 mps 750 mmHg 88%
22:00 +27°C° 0.1 mm 2 mps 750 mmHg 88%
23:00 +26°C° 0.1 mm 2 mps 751 mmHg 88%

8 July, Wednesday

Time Temperature Precipitation Wind Pressure Humidity
00:00 +26°C° 0 mm 2 mps 750 mmHg 89%
01:00 +26°C° 0 mm 1 mps 750 mmHg 89%
02:00 +25°C° 0 mm 1 mps 750 mmHg 90%
03:00 +25°C° 0 mm 1 mps 750 mmHg 91%
04:00 +25°C° 0 mm 1 mps 750 mmHg 92%
05:00 +25°C° 0 mm 1 mps 750 mmHg 93%
06:00 +26°C° 0 mm 1 mps 750 mmHg 89%
07:00 +27°C° 0 mm 1 mps 750 mmHg 86%
08:00 +28°C° 0 mm 1 mps 750 mmHg 83%
09:00 +29°C° 0 mm 2 mps 750 mmHg 79%
10:00 +30°C° 0 mm 2 mps 750 mmHg 74%
11:00 +33°C° 0 mm 3 mps 750 mmHg 70%
12:00 +33°C° 0 mm 3 mps 749 mmHg 68%
13:00 +34°C° 0 mm 3 mps 749 mmHg 65%
14:00 +34°C° 0 mm 3 mps 748 mmHg 63%
15:00 +34°C° 0 mm 3 mps 748 mmHg 63%
16:00 +34°C° 0 mm 2 mps 748 mmHg 64%
17:00 +34°C° 0 mm 2 mps 747 mmHg 64%
18:00 +32°C° 0.1 mm 2 mps 748 mmHg 70%
19:00 +30°C° 0.1 mm 2 mps 748 mmHg 75%
20:00 +29°C° 0.1 mm 3 mps 748 mmHg 80%
21:00 +28°C° 0.1 mm 3 mps 748 mmHg 82%
22:00 +28°C° 0.1 mm 3 mps 748 mmHg 84%
23:00 +27°C° 0.1 mm 2 mps 749 mmHg 85%

9 July, Thursday

Time Temperature Precipitation Wind Pressure Humidity
00:00 +27°C° 0 mm 2 mps 748 mmHg 86%
01:00 +27°C° 0 mm 2 mps 748 mmHg 87%
02:00 +26°C° 0 mm 2 mps 748 mmHg 88%
03:00 +26°C° 0 mm 2 mps 748 mmHg 90%
04:00 +26°C° 0 mm 3 mps 747 mmHg 92%
05:00 +25°C° 0 mm 3 mps 747 mmHg 94%
06:00 +26°C° 0 mm 3 mps 747 mmHg 91%
07:00 +27°C° 0 mm 3 mps 748 mmHg 88%
08:00 +28°C° 0 mm 4 mps 748 mmHg 86%
09:00 +29°C° 0 mm 4 mps 748 mmHg 82%
10:00 +30°C° 0 mm 4 mps 748 mmHg 78%
11:00 +32°C° 0 mm 4 mps 748 mmHg 74%
12:00 +33°C° 0.5 mm 4 mps 747 mmHg 72%
13:00 +33°C° 0.5 mm 4 mps 747 mmHg 70%
14:00 +34°C° 0.5 mm 4 mps 747 mmHg 68%
15:00 +33°C° 0.4 mm 4 mps 746 mmHg 69%
16:00 +33°C° 0.4 mm 3 mps 746 mmHg 70%
17:00 +33°C° 0.4 mm 3 mps 746 mmHg 72%
18:00 +31°C° 0.2 mm 3 mps 746 mmHg 76%
19:00 +29°C° 0.2 mm 3 mps 746 mmHg 81%
20:00 +28°C° 0.2 mm 2 mps 747 mmHg 86%
21:00 +28°C° 0 mm 2 mps 747 mmHg 88%
22:00 +27°C° 0 mm 2 mps 747 mmHg 89%
23:00 +27°C° 0 mm 2 mps 747 mmHg 90%

10 July, Friday

Time Temperature Precipitation Wind Pressure Humidity
00:00 +27°C° 0 mm 2 mps 747 mmHg 92%
01:00 +26°C° 0 mm 3 mps 747 mmHg 93%
02:00 +26°C° 0 mm 3 mps 747 mmHg 94%
03:00 +26°C° 0 mm 3 mps 747 mmHg 94%
04:00 +26°C° 0 mm 3 mps 747 mmHg 95%
05:00 +26°C° 0 mm 3 mps 747 mmHg 95%
06:00 +26°C° 0 mm 4 mps 747 mmHg 93%
07:00 +27°C° 0 mm 4 mps 747 mmHg 92%
08:00 +28°C° 0 mm 5 mps 747 mmHg 90%
09:00 +28°C° 0.1 mm 5 mps 747 mmHg 89%
10:00 +28°C° 0.1 mm 5 mps 747 mmHg 88%
11:00 +28°C° 0.1 mm 5 mps 747 mmHg 87%
12:00 +28°C° 1.3 mm 5 mps 747 mmHg 88%
13:00 +28°C° 1.3 mm 5 mps 746 mmHg 89%
14:00 +28°C° 1.3 mm 5 mps 746 mmHg 90%
15:00 +28°C° 2.3 mm 4 mps 746 mmHg 92%
16:00 +27°C° 2.3 mm 3 mps 745 mmHg 94%
17:00 +26°C° 2.3 mm 2 mps 745 mmHg 97%
18:00 +26°C° 0.7 mm 2 mps 745 mmHg 97%
19:00 +26°C° 0.7 mm 2 mps 745 mmHg 97%
20:00 +26°C° 0.7 mm 2 mps 745 mmHg 97%
21:00 +26°C° 0 mm 2 mps 745 mmHg 97%
22:00 +26°C° 0 mm 2 mps 746 mmHg 97%
23:00 +26°C° 0 mm 2 mps 746 mmHg 97%
Show more